Ana Sayfa
METAR-TAF:

METAR-TAF

Havaalanları :

Fort Hood / Killeen, Teksas, Amerika Birleşik Devletleri

Enlem: 31-06N, Boylam: 097-20W, yükseklik: 283 m

Güncel hava durumu gözlemi

Rapor saat 00:58 UTC de 1 saat ve 0 dakika önce yapıldı.
Rüzgar güneydan 4 kt
Sıcaklık 16°C
Nem 51%
Basınç 1013 hPa
Görüş mesafesi: 16.1 km
Açık gökyüzü

METAR: KHLR 190058Z AUTO 18004KT 10SM CLR 16/06 A2991 RMK AO2 SLP127 T01580055

Saat: 18:58 (01:58 UTC)


TAF: eksik

4.000'den fazla havaalanı için hava durumu gözlemleri ve tahminleri (METAR ve TAF raporları).

Kullanılabilir istasyonlar harita üzerinde sarı ve kırmızı noktalarla gösterilir.

İstasyonun adını görmek için fareyi noktanın üzerinde gezdirin.

Sonrasında hava gözlem ve tahminlerini görmek için tıklayın.

Haritayı değiştirmek için: yaklaştırmak için siyah artı işaretli yeşil düğmeye ve uzaklaştırmak için de eksi işaretli düğmeye hızla tıklayın; bitişik haritalar için yeşil okları kullanın.


METAR-TAF: